Location: Bannatyne
(13.0833°N, 59.5333°W)
Time: 01:01:25
(UTC+00:00)

Transit 4A - Pass Details

Date: 23 January 2021
Orbit: 866 x 978 km, 66.8° (Epoch: 03 March)

Event Time Altitude Azimuth Distance (km) Brightness Sun altitude
Exits shadow 09:29:11 - 335° (NNW) 2,966 10.1 -13.8°
Reaches altitude 10° 09:30:12 10° 334° (NNW) 2,581 9.8 -13.5°
Maximum altitude 09:36:08 71° 251° (WSW) 933 7.8 -12.1°
Drops below altitude 10° 09:41:56 10° 167° (SSE) 2,517 10.6 -10.8°
Sets 09:44:23 0° 165° (SSE) 3,447 11.4 -10.2°
